Showing default

COSMOS 2490, 39485

Orbit data source: Space-Track

COSMOS 2490, 39485 is a payload satellite owned by VVKO (CIS) in LEO that was launched on Wed, 25 Dec 2013 UTC via an ROKOT launch vehicle from the Plesetsk Missile And Space Complex (PKMTR). Payload-class satellites include a variety of spacecraft equipped with specific instruments for various scientific and technological missions. These include communications satellites like Starlink; space stations such as the ISS; scientific satellites like the Hubble; Earth observation satellites from companies like Planet Labs, Umbra, and HawkEye 360; GPS; miniature CubeSats for education and research; and military/defense satellites.

Loading next visibility...
Identifier
39485, 2013-076C
Orbit
LEO
Country
Flag of CISCIS
Related business
Manufacturer
Resehetnev ISS
Mission
Operational Civil Communications
Bus & Motor
STRELA-3M, Unknown motor
Mass
280 kg wet, 280 kg dry
Launch date (UTC)
2013-12-25 (12 years ago)
Launch vehicle
ROKOT
Launch site
Plesetsk Missile And Space Complex (PKMTR)
Object type
Payload
Rocket body
Debris
Shape & HBR
Cyl + 1 Ant, 3.5 m
Radar Cross Section
1.583 m², Large (>1 m²)

Expand to show TLE details & history
Last TLE update: 14 hours ago

TLE from 14 hours ago
0 COSMOS 2490
1 39485U 13076C   26067.92612010 -.00000011  00000-0 -15267-3 0  9996
2 39485  82.4795 230.6114 0020692 331.7099  28.2855 12.42874005553426
Epoch: 2026-03-08T22:13Z
TLE epoch observation values (Epoch: 2026-03-08T22:13:36.776Z)
Latitude
-0.00006°
Longitude
90.58175°
Altitude
1,482.803 km
Speed
7.129 km/s
True Right ascension
15h 22m 26s
True Declination
0° 00' 00"
Sunlit
Object was in daylight at epoch
Visualization orbit readout
Latitude
Unknown
Longitude
Unknown
Altitude
Unknown
Speed
Unknown
Apparent Right ascension
Unknown
Apparent Declination
Unknown
Sunlit
N/A
Visualization observer readout
Local Sidereal Time
16:42:23
Azimuth
Unknown
Elevation
Unknown
Doppler factor
Unknown
Orbital elements
Apogee altitude
1,508.08 km
Perigee altitude
1,475.511 km
Semi-major axis
7,869.932 km
Eccentricity
0.00207
Inclination
82.4795°
RAAN
230.6114°
Arg. of periapsis
331.7099°
True anomaly
28.39812°
Mean anomaly
28.2855°
Eccentric anomaly
28.34178°
Mean motion
3.10876 °/min
Orbital period
115.8 mins
BSTAR
-0.00015267
Loading maneuver chart data...
Computing Atmospheric mass density...
Loading historical data...
Loading historical data...
Loading historical data...
Loading historical data...
Loading historical data...
Loading historical data...
Loading historical data...

Documentation

Showing up to 5 results
|